EW3043 Weather Reports


Display with metric or nautical units.
time (UTC)temp
F
wind
direction
speed
MPH
gust
MPH
rain 1hr
in
rain 24hr
in
rain mn
in
humidity
%
barometer
mb
20260505124156 32 128 0.0 1.0 0.00 0.00 0.00 89 1011.5
20260505123714 32 217 0.0 1.0 0.00 0.00 0.00 89 1011.5
20260505123231 32 217 0.0 1.0 0.00 0.00 0.00 88 1011.6
20260505122651 32 161 0.0 2.0 0.00 0.00 0.00 88 1011.6
20260505122208 32 259 0.0 2.0 0.00 0.00 0.00 88 1011.4
20260505121707 31 252 0.0 1.0 0.00 0.00 0.00 87 1011.5
20260505121224 32 252 0.0 1.0 0.00 0.00 0.00 87 1011.4
20260505120700 32 253 0.0 2.0 0.00 0.00 0.00 87 1011.4
20260505120158 32 253 0.0 2.0 0.00 0.00 0.00 86 1011.3
20260505115658 32 250 0.0 1.0 0.00 0.00 0.00 86 1011.5
20260505115156 32 25 0.0 1.0 0.00 0.00 0.00 87 1011.6
20260505114654 32 269 0.0 1.0 0.00 0.00 0.00 87 1011.7
20260505114213 32 218 0.0 1.0 0.00 0.00 0.00 87 1011.6
20260505113710 32 183 0.0 1.0 0.00 0.00 0.00 87 1011.6
20260505113207 32 149 0.0 1.0 0.00 0.00 0.00 87 1011.6
20260505112705 32 241 0.0 1.0 0.00 0.00 0.00 87 1011.6
20260505112202 32 75 0.0 1.0 0.00 0.00 0.00 88 1011.5
20260505111700 32 232 0.0 1.0 0.00 0.00 0.00 88 1011.4
20260505111158 32 257 0.0 2.0 0.00 0.00 0.00 88 1011.3
20260505110656 32 252 0.0 2.0 0.00 0.00 0.00 89 1011.3
20260505110158 32 154 0.0 1.0 0.00 0.00 0.00 89 1011.4
20260505102157 32 261 0.0 2.0 0.00 0.00 0.00 90 1011.5
20260505101654 32 257 0.0 2.0 0.00 0.00 0.00 91 1011.6
20260505101212 32 261 1.0 2.0 0.00 0.00 0.00 91 1011.6
20260505100710 32 252 0.0 1.0 0.00 0.00 0.00 91 1011.8
20260505100206 32 252 0.0 1.0 0.00 0.00 0.00 91 1011.9
20260505095726 32 252 0.0 1.0 0.00 0.00 0.00 91 1011.9
20260505095203 32 252 0.0 2.0 0.00 0.00 0.00 91 1011.8
20260505094701 32 252 0.0 3.0 0.00 0.00 0.00 91 1011.8
20260505094219 32 280 1.0 3.0 0.00 0.00 0.00 91 1011.8
20260505093700 33 256 0.0 3.0 0.00 0.00 0.00 91 1011.9
20260505093158 33 243 1.0 3.0 0.00 0.00 0.00 91 1012.0
20260505092655 33 255 0.0 1.0 0.00 0.00 0.00 92 1012.1
20260505092152 33 248 0.0 1.0 0.00 0.00 0.00 91 1012.1
20260505091711 33 196 0.0 1.0 0.00 0.00 0.00 91 1012.1
20260505091222 33 246 0.0 2.0 0.00 0.00 0.00 90 1012.0
20260505090653 33 253 0.0 2.0 0.00 0.00 0.00 90 1012.1
20260505090211 33 252 0.0 2.0 0.00 0.00 0.00 89 1012.2
20260505085729 33 254 0.0 2.0 0.00 0.00 0.00 89 1012.3
20260505085206 33 250 0.0 2.0 0.00 0.00 0.00 89 1012.2
20260505084703 33 252 0.0 3.0 0.00 0.00 0.00 89 1012.2
20260505084201 32 257 0.0 3.0 0.00 0.00 0.00 89 1012.3
20260505083658 32 255 0.0 2.0 0.00 0.00 0.00 89 1012.4
20260505083156 32 250 0.0 2.0 0.00 0.00 0.00 89 1012.4
20260505082654 32 248 0.0 1.0 0.00 0.00 0.00 89 1012.5
20260505082232 32 253 0.0 1.0 0.00 0.00 0.00 88 1012.6
20260505081709 32 240 0.0 1.0 0.00 0.00 0.00 88 1012.6
20260505081207 32 234 0.0 1.0 0.00 0.00 0.00 88 1012.7
20260505080705 31 234 0.0 1.0 0.00 0.00 0.00 88 1012.8
20260505080208 31 240 0.0 1.0 0.00 0.00 0.00 88 1012.8
20260505075706 32 153 0.0 1.0 0.00 0.00 0.00 88 1012.8
20260505075202 32 259 0.0 0.0 0.00 0.00 0.00 88 1013.0
20260505074659 32 259 0.0 2.0 0.00 0.00 0.00 88 1012.9
20260505074218 32 254 0.0 2.0 0.00 0.00 0.00 88 1012.9
20260505073654 32 252 0.0 1.0 0.00 0.00 0.00 88 1012.9
20260505073212 32 256 0.0 2.0 0.00 0.00 0.00 88 1012.9
20260505072709 32 261 0.0 2.0 0.00 0.00 0.00 88 1012.9
20260505072207 32 256 0.0 2.0 0.00 0.00 0.00 88 1012.9
20260505071704 32 245 0.0 3.0 0.00 0.00 0.00 88 1012.9
20260505071201 32 260 1.0 4.0 0.00 0.00 0.00 87 1012.7
20260505070216 32 259 1.0 4.0 0.00 0.00 0.00 87 1012.8
20260505065734 32 259 2.0 4.0 0.00 0.00 0.00 86 1012.9
20260505065209 32 274 2.0 4.0 0.00 0.00 0.00 86 1012.8
20260505064728 32 255 2.0 4.0 0.00 0.00 0.00 86 1013.1
20260505064205 33 247 2.0 4.0 0.00 0.00 0.00 86 1013.1
20260505063703 33 285 1.0 4.0 0.00 0.00 0.00 85 1013.1
20260505063221 33 256 2.0 4.0 0.00 0.00 0.00 85 1013.1
20260505062657 33 251 1.0 3.0 0.00 0.00 0.00 85 1013.3
20260505062159 33 271 1.0 3.0 0.00 0.00 0.00 85 1013.4
20260505061725 33 256 1.0 3.0 0.00 0.00 0.00 85 1013.5
20260505061205 33 248 1.0 2.0 0.00 0.00 0.00 84 1013.7
20260505060702 33 265 1.0 2.0 0.00 0.00 0.00 84 1013.7
20260505060200 33 274 0.0 2.0 0.00 0.00 0.00 85 1013.7
20260505055659 32 271 0.0 3.0 0.00 0.00 0.00 84 1013.7
20260505055157 33 249 1.0 3.0 0.00 0.00 0.00 85 1013.7
20260505054655 33 253 0.0 2.0 0.00 0.00 0.00 85 1013.8
20260505054233 33 263 0.0 2.0 0.00 0.00 0.00 85 1013.8
20260505053709 33 257 0.0 2.0 0.00 0.00 0.00 85 1013.8
20260505053227 33 273 0.0 2.0 0.00 0.00 0.00 85 1013.8
20260505052704 33 270 0.0 2.0 0.00 0.00 0.00 84 1013.9
20260505052202 33 280 0.0 1.0 0.00 0.00 0.00 85 1013.8
20260505051720 33 255 0.0 3.0 0.00 0.00 0.00 84 1014.1
20260505051156 33 254 0.0 4.0 0.00 0.00 0.00 84 1014.1
20260505050654 33 256 1.0 4.0 0.00 0.00 0.00 84 1014.1
20260505050232 33 260 1.0 4.0 0.00 0.00 0.00 85 1014.2
20260505041714 34 276 0.0 3.0 0.00 0.00 0.00 85 1014.0
20260505041212 34 252 0.0 3.0 0.00 0.00 0.00 85 1013.9
20260505040710 34 244 0.0 2.0 0.00 0.00 0.00 85 1013.9
20260505040208 34 262 0.0 2.0 0.00 0.00 0.00 85 1013.9
20260505035706 34 262 1.0 2.0 0.00 0.00 0.00 85 1013.8
20260505035204 35 238 0.0 2.0 0.00 0.00 0.00 83 1013.8
20260505034702 35 273 0.0 2.0 0.00 0.00 0.00 81 1013.8
20260505034159 35 229 0.0 2.0 0.00 0.00 0.00 80 1013.7
20260505033657 35 222 0.0 1.0 0.00 0.00 0.00 79 1013.8
20260505033155 35 49 0.0 2.0 0.00 0.00 0.00 79 1013.7
20260505032712 35 257 1.0 2.0 0.00 0.00 0.00 78 1013.7
20260505032210 35 286 0.0 2.0 0.00 0.00 0.00 78 1013.8
20260505031712 35 289 0.0 2.0 0.00 0.00 0.00 78 1013.8
20260505031209 35 257 0.0 2.0 0.00 0.00 0.00 79 1013.8
20260505030706 35 259 0.0 2.0 0.00 0.00 0.00 80 1013.8
20260505030205 35 248 0.0 2.0 0.00 0.00 0.00 80 1013.8
20260505025702 35 269 0.0 2.0 0.00 0.00 0.00 80 1013.8
20260505025200 35 225 0.0 2.0 0.00 0.00 0.00 81 1013.8
20260505024717 35 309 0.0 2.0 0.00 0.00 0.00 79 1013.6
20260505024215 35 258 0.0 1.0 0.00 0.00 0.00 78 1013.6
20260505023733 35 258 0.0 4.0 0.00 0.00 0.00 79 1013.7
20260505023208 35 166 1.0 2.0 0.00 0.00 0.00 79 1013.6
20260505022706 35 262 0.0 2.0 0.00 0.00 0.00 78 1013.6
20260505022205 36 233 0.0 2.0 0.00 0.00 0.00 78 1013.7
20260505021702 36 286 1.0 3.0 0.00 0.00 0.00 78 1013.7
20260505021220 36 248 0.0 3.0 0.00 0.00 0.00 78 1013.7
20260505020657 36 257 0.0 2.0 0.00 0.00 0.00 78 1013.6
20260505020215 36 172 0.0 2.0 0.00 0.00 0.00 79 1013.7
20260505015715 37 160 0.0 2.0 0.00 0.00 0.00 80 1013.7
20260505015157 37 246 0.0 2.0 0.00 0.00 0.00 79 1013.8
20260505014714 37 238 1.0 2.0 0.00 0.00 0.00 79 1013.5
20260505014212 37 58 0.0 5.0 0.00 0.00 0.00 79 1013.7
20260505013710 37 257 1.0 5.0 0.00 0.00 0.00 78 1013.8
20260505013208 37 101 0.0 2.0 0.00 0.00 0.00 76 1013.9
20260505012706 37 45 0.0 2.0 0.00 0.00 0.00 76 1013.8
20260505012224 37 201 0.0 1.0 0.00 0.00 0.00 75 1013.9
20260505011721 37 25 0.0 3.0 0.00 0.00 0.00 75 1013.9
20260505011158 38 266 0.0 4.0 0.00 0.00 0.00 74 1014.0
20260505010715 38 106 0.0 4.0 0.00 0.00 0.00 73 1014.1
20260505010213 38 250 0.0 3.0 0.00 0.00 0.00 74 1014.1
20260505005658 38 39 0.0 3.0 0.00 0.00 0.00 72 1014.1
20260505005216 39 86 0.0 1.0 0.00 0.00 0.00 71 1014.2
20260505004714 39 250 0.0 2.0 0.00 0.00 0.00 69 1014.1
20260505004211 39 291 0.0 4.0 0.00 0.00 0.00 68 1014.1
20260505003709 39 44 1.0 4.0 0.00 0.00 0.00 69 1014.2
20260505003207 39 274 0.0 6.0 0.00 0.00 0.00 69 1014.2
20260505002705 40 7 0.0 6.0 0.00 0.00 0.00 68 1014.3
20260505002207 40 46 0.0 3.0 0.00 0.00 0.00 68 1014.4
20260505001705 40 160 0.0 2.0 0.00 0.00 0.00 67 1014.2
20260505001202 40 287 0.0 2.0 0.00 0.00 0.00 66 1014.1
20260505000720 40 262 0.0 3.0 0.00 0.00 0.00 66 1014.2
20260505000157 40 250 1.0 3.0 0.00 0.00 0.00 65 1014.1
20260504235715 41 43 1.0 3.0 0.00 0.00 0.00 64 1014.1
20260504235213 41 27 0.0 2.0 0.00 0.00 0.00 65 1014.1
20260504234711 41 59 0.0 2.0 0.00 0.00 0.00 64 1014.0
20260504234208 41 50 0.0 2.0 0.00 0.00 0.00 64 1014.0
20260504233705 41 294 0.0 4.0 0.00 0.00 0.00 64 1014.1
20260504233202 41 274 0.0 4.0 0.00 0.00 0.00 64 1014.1
20260504232659 41 35 1.0 2.0 0.00 0.00 0.00 64 1014.0
20260504232157 41 57 1.0 3.0 0.00 0.00 0.00 65 1014.1
20260504231715 41 274 1.0 3.0 0.00 0.00 0.00 65 1014.1
20260504231213 41 272 0.0 3.0 0.00 0.00 0.00 64 1014.2
20260504230711 41 91 0.0 3.0 0.00 0.00 0.00 64 1014.3
20260504230213 41 262 0.0 4.0 0.00 0.00 0.00 64 1014.3
20260504225712 41 60 1.0 4.0 0.00 0.00 0.00 65 1014.2
20260504225210 42 225 1.0 4.0 0.00 0.00 0.00 64 1014.3
20260504224708 42 158 0.0 4.0 0.00 0.00 0.00 65 1014.3
20260504224207 42 254 0.0 3.0 0.00 0.00 0.00 63 1014.3
20260504223659 43 69 1.0 3.0 0.00 0.00 0.00 62 1014.3
20260504223157 43 292 1.0 3.0 0.00 0.00 0.00 60 1014.3
20260504222715 45 285 1.0 4.0 0.00 0.00 0.00 58 1014.4
20260504222213 45 247 1.0 4.0 0.00 0.00 0.00 57 1014.5
20260504221711 45 35 0.0 3.0 0.00 0.00 0.00 57 1014.4
20260504221229 45 270 0.0 4.0 0.00 0.00 0.00 57 1014.3
20260504220705 46 70 2.0 4.0 0.00 0.00 0.00 57 1014.3
20260504220203 46 40 1.0 3.0 0.00 0.00 0.00 58 1014.3
20260504215703 45 48 0.0 2.0 0.00 0.00 0.00 59 1014.4
20260504215201 45 34 0.0 2.0 0.00 0.00 0.00 60 1014.6
20260504214719 44 319 1.0 2.0 0.00 0.00 0.00 59 1014.8
20260504214201 45 249 0.0 5.0 0.00 0.00 0.00 57 1014.8
20260504213659 46 214 2.0 5.0 0.00 0.00 0.00 55 1014.7
20260504213236 46 262 1.0 3.0 0.00 0.00 0.00 55 1014.8
20260504212733 47 248 1.0 4.0 0.00 0.00 0.00 52 1014.6
20260504212209 47 237 2.0 4.0 0.00 0.00 0.00 51 1014.6
20260504211707 47 115 1.0 4.0 0.00 0.00 0.00 53 1014.6
20260504211204 46 253 1.0 5.0 0.00 0.00 0.00 55 1014.6
20260504210702 45 262 1.0 8.0 0.00 0.00 0.00 56 1014.7
20260504210200 45 262 3.0 8.0 0.00 0.00 0.00 55 1014.8
20260504205719 46 251 2.0 5.0 0.00 0.00 0.00 55 1014.6
20260504205214 47 236 2.0 7.0 0.00 0.00 0.00 53 1014.7
20260504204712 47 262 2.0 7.0 0.00 0.00 0.00 54 1014.7
20260504204211 48 271 2.0 5.0 0.00 0.00 0.00 49 1014.8
20260504203728 49 254 1.0 3.0 0.00 0.00 0.00 50 1014.6
20260504203204 49 250 1.0 3.0 0.00 0.00 0.00 51 1014.6
20260504202701 48 44 2.0 5.0 0.00 0.00 0.00 51 1014.4
20260504202218 48 239 1.0 5.0 0.00 0.00 0.00 51 1014.4
20260504201717 49 240 1.0 6.0 0.00 0.00 0.00 49 1014.5
20260504201158 50 250 1.0 6.0 0.00 0.00 0.00 48 1014.5
20260504200716 51 66 1.0 4.0 0.00 0.00 0.00 45 1014.5
20260504200234 51 50 1.0 3.0 0.00 0.00 0.00 47 1014.4
20260504195712 50 311 1.0 4.0 0.00 0.00 0.00 45 1014.4
20260504195210 51 112 1.0 6.0 0.00 0.00 0.00 44 1014.6
20260504194707 51 243 1.0 6.0 0.00 0.00 0.00 42 1014.5
20260504194204 52 242 1.0 5.0 0.00 0.00 0.00 40 1014.5
20260504193701 52 288 2.0 5.0 0.00 0.00 0.00 37 1014.3
20260504193159 54 258 2.0 4.0 0.00 0.00 0.00 31 1014.3
20260504192716 55 271 1.0 4.0 0.00 0.00 0.00 27 1014.4
20260504192214 55 287 1.0 4.0 0.00 0.00 0.00 27 1014.4
20260504191712 56 255 1.0 3.0 0.00 0.00 0.00 26 1014.2
20260504191210 56 360 1.0 4.0 0.00 0.00 0.00 22 1014.3
20260504190701 56 20 1.0 4.0 0.00 0.00 0.00 22 1014.2
20260504190237 55 295 1.0 3.0 0.00 0.00 0.00 25 1014.2
20260504185714 54 306 1.0 3.0 0.00 0.00 0.00 27 1014.2
20260504185211 53 46 1.0 3.0 0.00 0.00 0.00 31 1014.2
20260504184708 53 360 1.0 5.0 0.00 0.00 0.00 28 1014.3
20260504184209 53 43 2.0 6.0 0.00 0.00 0.00 32 1014.4
20260504183707 53 228 2.0 6.0 0.00 0.00 0.00 31 1014.4
20260504183204 53 358 2.0 4.0 0.00 0.00 0.00 31 1014.4
20260504182701 53 43 2.0 4.0 0.00 0.00 0.00 32 1014.6
20260504182159 52 63 1.0 4.0 0.00 0.00 0.00 30 1014.3
20260504181717 53 43 3.0 4.0 0.00 0.00 0.00 29 1014.3
20260504181215 52 79 1.0 3.0 0.00 0.00 0.00 31 1014.2
20260504180713 52 41 2.0 5.0 0.00 0.00 0.00 30 1014.3
20260504180210 52 266 2.0 6.0 0.00 0.00 0.00 31 1014.3
20260504175709 52 43 1.0 7.0 0.00 0.00 0.00 30 1014.3
20260504175207 52 43 3.0 7.0 0.00 0.00 0.00 30 1014.2
20260504174724 52 76 2.0 5.0 0.00 0.00 0.00 31 1014.0
20260504174201 52 53 2.0 5.0 0.00 0.00 0.00 29 1014.1
20260504173659 51 356 1.0 5.0 0.00 0.00 0.00 31 1014.0
20260504173217 50 63 2.0 4.0 0.00 0.00 0.00 33 1014.0
20260504172715 50 47 1.0 4.0 0.00 0.00 0.00 33 1014.1
20260504172212 50 24 1.0 4.0 0.00 0.00 0.00 32 1014.0
20260504171709 50 20 1.0 3.0 0.00 0.00 0.00 31 1013.9
20260504171206 49 235 1.0 3.0 0.00 0.00 0.00 31 1014.0
20260504170702 49 255 1.0 3.0 0.00 0.00 0.00 28 1013.9
20260504170220 49 282 1.0 3.0 0.00 0.00 0.00 28 1013.9
20260504160213 46 45 0.0 3.0 0.00 0.00 0.00 33 1013.8
20260504150706 39 48 0.0 1.0 0.00 0.00 0.00 56 1013.4
20260504150203 38 49 0.0 1.0 0.00 0.00 0.00 57 1013.3
20260504141200 34 143 0.0 1.0 0.00 0.00 0.00 65 1012.9
20260504140719 34 101 0.0 1.0 0.00 0.00 0.00 63 1013.1
20260504140237 34 68 0.0 1.0 0.00 0.00 0.00 65 1012.9
20260504130709 33 126 0.0 1.0 0.00 0.00 0.00 59 1012.9
20260504130207 33 135 0.0 1.0 0.00 0.00 0.00 59 1012.9